Data for 11/12/2010

Time Sea-Level Adjusted Pressure Absolute Pressure Temperature Relative Humidity Dew Point   
(mb) (inHg) (mb) (inHg) (C) (F) (%) (C) (F)
00:05 1026 30.3 855 25.25 -4 24.8 73 -8.2 17.2
00:10 1026 30.3 855 25.25 -3.9 25 72 -8.2 17.2
00:15 1026 30.3 855 25.25 -3.9 25 72 -8.2 17.2
00:20 1026 30.3 855 25.25 -4.1 24.6 73 -8.2 17.3
00:25 1026 30.3 855 25.25 -4.2 24.4 74 -8.2 17.2
00:30 1026 30.3 855 25.25 -4.3 24.3 75 -8.2 17.3
00:35 1026 30.3 855 25.25 -4.5 24 76 -8 17.6
00:40 1026 30.3 855 25.25 -4.6 23.7 79 -7.8 17.9
00:45 1026 30.3 855 25.25 -4.7 23.5 79 -7.8 17.9
00:50 1026 30.3 855 25.25 -4.7 23.6 78 -7.9 17.7
00:55 1026 30.3 855 25.25 -4.7 23.5 79 -7.8 17.9
01:00 1026 30.3 855 25.25 -4.9 23.1 80 -7.8 17.9
01:05 1026 30.3 855 25.25 -5.1 22.8 81 -7.8 18
01:10 1026 30.3 855 25.25 -5.1 22.9 80 -7.9 17.7
01:15 1026 30.3 855 25.25 -5 23.1 80 -8 17.6
01:20 1026 30.3 855 25.25 -4.8 23.4 78 -8.1 17.5
01:25 1026 30.3 855 25.25 -5 22.9 80 -8 17.5
01:30 1026 30.3 855 25.25 -5 23 80 -8 17.6
01:35 1026 30.3 855 25.25 -5 23.1 80 -8 17.7
01:40 1026 30.3 855 25.25 -4.9 23.2 79 -8 17.6
01:45 1026 30.3 855 25.25 -5 23 77 -8.4 17
01:50 1026 30.3 855 25.25 -5 22.9 79 -8.2 17.2
01:55 1026 30.3 855 25.25 -5.1 22.8 78 -8.4 16.9
02:00 1026 30.3 855 25.25 -4.9 23.2 76 -8.5 16.7
02:05 1026 30.3 855 25.25 -4.7 23.6 76 -8.2 17.2
02:10 1026 30.3 855 25.25 -4.6 23.7 75 -8.4 16.9
02:15 1026 30.3 855 25.25 -4.5 23.9 75 -8.2 17.2
02:20 1026 30.3 855 25.25 -4.4 24 75 -8.2 17.3
02:25 1026 30.3 855 25.25 -4.6 23.8 76 -8.1 17.3
02:30 1026 30.3 855 25.25 -4.7 23.5 77 -8.2 17.2
02:35 1026 30.3 855 25.25 -4.8 23.4 77 -8.2 17.3
02:40 1026 30.3 855 25.25 -4.9 23.1 78 -8.2 17.2
02:45 1026 30.3 855 25.25 -5.2 22.7 78 -8.4 16.9
02:50 1026 30.3 855 25.25 -5.2 22.6 78 -8.4 16.9
02:55 1026 30.3 855 25.25 -5.2 22.6 76 -8.7 16.3
03:00 1026 30.3 855 25.25 -5.1 22.8 76 -8.8 16.2
03:05 1026 30.3 855 25.25 -5.2 22.6 76 -8.9 16
03:10 1026 30.3 855 25.25 -4.6 23.7 74 -8.5 16.7
03:15 1026 30.3 855 25.25 -4.5 24 74 -8.4 16.9
03:20 1026 30.3 855 25.25 -4.4 24 75 -8.2 17.2
03:25 1026 30.3 855 25.25 -4.4 24 76 -8.1 17.4
03:30 1026 30.3 855 25.25 -4.4 24 75 -8.2 17.3
03:35 1026 30.3 855 25.25 -4.4 24.1 76 -8.1 17.5
03:40 1026 30.3 855 25.25 -4.6 23.7 77 -8 17.5
03:45 1026 30.3 855 25.25 -4.7 23.6 77 -8.2 17.3
03:50 1026 30.3 855 25.25 -4.8 23.4 77 -8.2 17.2
03:55 1025 30.27 855 25.25 -5.1 22.8 78 -8.4 16.8
04:00 1026 30.3 855 25.25 -5 23.1 77 -8.5 16.8
04:05 1026 30.3 855 25.25 -4.8 23.3 77 -8.3 17
04:10 1026 30.3 855 25.25 -4.7 23.6 77 -8.2 17.2
04:15 1026 30.3 855 25.25 -4.8 23.3 77 -8.2 17.2
04:20 1026 30.3 855 25.25 -4.9 23.2 77 -8.3 17.1
04:25 1026 30.3 855 25.25 -4.9 23.2 77 -8.4 16.9
04:30 1026 30.3 855 25.25 -4.7 23.5 75 -8.4 16.8
04:35 1026 30.3 855 25.25 -4.8 23.3 76 -8.4 16.9
04:40 1026 30.3 855 25.25 -5.1 22.9 76 -8.6 16.5
04:45 1026 30.3 855 25.25 -4.9 23.2 76 -8.5 16.7
04:50 1026 30.3 855 25.25 -4.5 23.9 75 -8.3 17.1
04:55 1026 30.3 855 25.25 -4.4 24.1 76 -8 17.7
05:00 1026 30.3 855 25.25 -4.7 23.6 79 -7.8 18
05:05 1026 30.3 855 25.25 -4.7 23.5 80 -7.7 18.1
05:10 1026 30.3 855 25.25 -4.6 23.8 78 -7.8 17.9
05:15 1026 30.3 855 25.25 -4.2 24.5 77 -7.6 18.3
05:20 1026 30.3 855 25.25 -4 24.8 77 -7.5 18.4
05:25 1026 30.3 855 25.25 -4 24.8 77 -7.4 18.7
05:30 1026 30.3 855 25.25 -3.9 24.9 77 -7.3 18.8
05:35 1026 30.3 855 25.25 -4.1 24.7 78 -7.3 18.9
05:40 1026 30.3 855 25.25 -4.3 24.2 79 -7.4 18.7
05:45 1026 30.3 855 25.25 -4.4 24 79 -7.6 18.4
05:50 1026 30.3 855 25.25 -4.5 23.9 81 -7.3 18.8
05:55 1026 30.3 855 25.25 -4.6 23.7 80 -7.6 18.3
06:00 1026 30.3 855 25.25 -4.1 24.7 76 -7.7 18.1
06:05 1026 30.3 855 25.25 -4 24.9 75 -7.7 18.1
06:10 1026 30.3 855 25.25 -3.9 25.1 75 -7.6 18.3
06:15 1026 30.3 855 25.25 -4 24.8 77 -7.4 18.7
06:20 1026 30.3 855 25.25 -4 24.7 77 -7.5 18.6
06:25 1026 30.3 855 25.25 -3.5 25.7 76 -7.1 19.3
06:30 1026 30.3 855 25.25 -3.4 25.9 78 -6.7 19.9
06:35 1026 30.3 855 25.25 -3.2 26.2 78 -6.5 20.2
06:40 1026 30.3 855 25.25 -2.8 26.9 76 -6.4 20.4
06:45 1026 30.3 856 25.28 -2.6 27.2 75 -6.5 20.3
06:50 1026 30.3 856 25.28 -2.4 27.6 76 -6.1 21
06:55 1026 30.3 856 25.28 -2.8 27 79 -5.9 21.3
07:00 1027 30.33 856 25.28 -3.2 26.3 80 -6.1 21
07:05 1027 30.33 856 25.28 -3.2 26.2 80 -6.3 20.7
07:10 1027 30.33 856 25.28 -3.3 26.1 80 -6.2 20.8
07:15 1027 30.33 856 25.28 -3.4 26 80 -6.3 20.6
07:20 1027 30.33 856 25.28 -3.2 26.3 78 -6.4 20.4
07:25 1027 30.33 856 25.28 -3 26.7 77 -6.4 20.5
07:30 1027 30.33 856 25.28 -2.9 26.9 77 -6.4 20.5
07:35 1027 30.33 856 25.28 -2.8 26.9 77 -6.3 20.7
07:40 1027 30.33 856 25.28 -3 26.6 79 -6.2 20.9
07:45 1027 30.33 856 25.28 -3.2 26.2 81 -6.1 21
07:50 1027 30.33 856 25.28 -3.2 26.2 80 -6.2 20.8
07:55 1027 30.33 856 25.28 -3 26.5 78 -6.4 20.6
08:00 1027 30.33 856 25.28 -2.9 26.8 79 -6.1 21.1
08:05 1027 30.33 856 25.28 -3 26.6 80 -5.9 21.3
08:10 1027 30.33 856 25.28 -3 26.6 79 -6.1 21.1
08:15 1027 30.33 857 25.31 -2.9 26.8 79 -6 21.3
08:20 1027 30.33 857 25.31 -2.7 27.1 78 -6.1 21.1
08:25 1027 30.33 857 25.31 -2.6 27.3 75 -6.4 20.5
08:30 1027 30.33 857 25.31 -2.4 27.8 75 -6.1 20.9
08:35 1027 30.33 857 25.31 -2.3 27.9 74 -6.2 20.8
08:40 1027 30.33 857 25.31 -2.3 27.9 77 -5.8 21.5
08:45 1027 30.33 857 25.31 -2.2 28 77 -5.8 21.6
08:50 1027 30.33 856 25.28 -2.2 28 77 -5.7 21.8
08:55 1027 30.33 856 25.28 -2.3 27.8 76 -6 21.2
09:00 1027 30.33 857 25.31 -2.1 28.2 76 -5.8 21.6
09:05 1027 30.33 856 25.28 -2.1 28.1 77 -5.6 21.8
09:10 1027 30.33 856 25.28 -2.1 28.2 77 -5.6 21.9
09:15 1027 30.33 857 25.31 -2 28.4 79 -5.1 22.8
09:20 1027 30.33 857 25.31 -1.8 28.7 78 -5.2 22.7
09:25 1027 30.33 857 25.31 -1.7 29 77 -5.2 22.6
09:30 1027 30.33 857 25.31 -1.7 29 77 -5.2 22.7
09:35 1027 30.33 857 25.31 -1.5 29.3 76 -5.2 22.6
09:40 1027 30.33 857 25.31 -1.3 29.7 75 -5.1 22.9
09:45 1027 30.33 857 25.31 -1 30.2 75 -5 23.1
09:50 1027 30.33 857 25.31 -1 30.2 75 -4.9 23.1
09:55 1027 30.33 857 25.31 -1 30.3 74 -5 23.1
10:00 1027 30.33 857 25.31 -0.7 30.8 71 -5.3 22.4
10:05 1027 30.33 857 25.31 -0.4 31.3 71 -5 23
10:10 1027 30.33 857 25.31 0.1 32.2 67 -5.2 22.6
10:15 1027 30.33 857 25.31 0.4 32.8 67 -4.9 23.1
10:20 1028 30.36 857 25.31 0.7 33.3 67 -4.7 23.5
10:25 1028 30.36 857 25.31 0.9 33.7 65 -4.8 23.3
10:30 1028 30.36 857 25.31 1.1 34 65 -4.7 23.6
10:35 1028 30.36 857 25.31 1 33.9 66 -4.6 23.7
10:40 1028 30.36 857 25.31 1.1 33.9 65 -4.9 23.2
10:45 1028 30.36 857 25.31 1.4 34.5 63 -4.8 23.3
10:50 1028 30.36 857 25.31 1.7 35.1 63 -4.5 23.8
10:55 1028 30.36 857 25.31 2.1 35.8 59 -5 23
11:00 1027 30.33 857 25.31 2.5 36.5 57 -5.2 22.7
11:05 1027 30.33 857 25.31 2.7 36.8 56 -5.3 22.5
11:10 1027 30.33 857 25.31 2.4 36.3 58 -4.9 23.1
11:15 1027 30.33 857 25.31 2.2 35.9 59 -5 23.1
11:20 1027 30.33 857 25.31 2.5 36.5 58 -5 23.1
11:25 1027 30.33 857 25.31 2.9 37.2 56 -5 23.1
11:30 1027 30.33 857 25.31 2.7 36.9 59 -4.6 23.7
11:35 1027 30.33 856 25.28 2.7 36.8 58 -4.7 23.6
11:40 1027 30.33 857 25.31 2.7 36.8 59 -4.6 23.8
11:45 1027 30.33 856 25.28 2.7 36.8 59 -4.6 23.7
11:50 1027 30.33 857 25.31 2.9 37.1 59 -4.4 24.1
11:55 1027 30.33 856 25.28 3 37.5 57 -4.6 23.7
12:00 1027 30.33 856 25.28 3.1 37.6 57 -4.5 23.9
12:05 1027 30.33 856 25.28 3.3 38 58 -4.3 24.3
12:10 1027 30.33 856 25.28 3.5 38.3 57 -4.3 24.3
12:15 1027 30.33 856 25.28 3.6 38.4 55 -4.5 23.8
12:20 1027 30.33 856 25.28 3.7 38.7 55 -4.4 24
12:25 1027 30.33 856 25.28 3.8 38.9 58 -3.6 25.6
12:30 1027 30.33 856 25.28 3.1 37.6 60 -3.9 25
12:35 1027 30.33 856 25.28 2.8 37 58 -4.7 23.6
12:40 1027 30.33 856 25.28 2.8 37.1 58 -4.6 23.7
12:45 1027 30.33 856 25.28 3.3 37.9 54 -5.1 22.9
12:50 1027 30.33 856 25.28 3.2 37.8 55 -4.9 23.2
12:55 1027 30.33 856 25.28 3.8 38.8 54 -4.7 23.5
13:00 1027 30.33 856 25.28 4 39.2 51 -5.3 22.4
13:05 1027 30.33 856 25.28 3.7 38.6 53 -5 23.1
13:10 1027 30.33 856 25.28 4.1 39.4 51 -5.2 22.6
13:15 1027 30.33 856 25.28 3.7 38.6 51 -5.6 21.9
13:20 1027 30.33 856 25.28 3.3 38 52 -5.7 21.8
13:25 1027 30.33 856 25.28 3.3 37.9 51 -5.9 21.5
13:30 1027 30.33 856 25.28 3.1 37.5 52 -5.7 21.7
13:35 1027 30.33 857 25.31 3.5 38.4 51 -5.7 21.7
13:40 1027 30.33 857 25.31 3.9 39 52 -5.2 22.7
13:45 1027 30.33 857 25.31 4 39.1 51 -5.3 22.4
13:50 1027 30.33 857 25.31 4 39.2 50 -5.5 22
13:55 1027 30.33 857 25.31 3.6 38.6 52 -5.3 22.5
14:00 1027 30.33 857 25.31 3.4 38.1 54 -5 23.1
14:05 1027 30.33 857 25.31 3.1 37.6 58 -4.3 24.2
14:10 1027 30.33 857 25.31 2.9 37.3 63 -3.4 25.9
14:15 1027 30.33 857 25.31 2.8 37 65 -3.2 26.3
14:20 1027 30.33 857 25.31 2.7 36.8 68 -2.7 27.2
14:25 1028 30.36 857 25.31 2.4 36.4 72 -2.1 28.3
14:30 1027 30.33 857 25.31 2.2 35.9 73 -2.2 28.1
14:35 1028 30.36 857 25.31 2.4 36.3 71 -2.3 27.9
14:40 1027 30.33 857 25.31 3.1 37.6 67 -2.5 27.5
14:45 1027 30.33 857 25.31 3.8 38.9 64 -2.4 27.7
14:50 1027 30.33 857 25.31 3.6 38.4 62 -3.1 26.5
14:55 1027 30.33 857 25.31 3.3 38 66 -2.5 27.6
15:00 1027 30.33 857 25.31 2.5 36.5 69 -2.6 27.3
15:05 1027 30.33 857 25.31 2.4 36.3 68 -2.9 26.7
15:10 1027 30.33 857 25.31 2.3 36.1 68 -3 26.5
15:15 1028 30.36 857 25.31 2.3 36.1 67 -3.3 26.1
15:20 1028 30.36 857 25.31 2.5 36.4 68 -2.9 26.9
15:25 1028 30.36 857 25.31 2.5 36.4 70 -2.5 27.4
15:30 1028 30.36 857 25.31 2.4 36.3 72 -2.3 27.9
15:35 1028 30.36 857 25.31 2.2 36 73 -2.2 28.1
15:40 1028 30.36 857 25.31 2 35.7 74 -2.2 28.1
15:45 1028 30.36 857 25.31 1.9 35.3 75 -2.2 28.1
15:50 1028 30.36 857 25.31 1.9 35.5 73 -2.4 27.6
15:55 1028 30.36 857 25.31 2 35.5 74 -2.2 28
16:00 1028 30.36 857 25.31 1.8 35.3 75 -2.1 28.2
16:05 1028 30.36 857 25.31 1.8 35.2 76 -2 28.3
16:10 1028 30.36 857 25.31 1.7 35.1 75 -2.3 27.9
16:15 1028 30.36 857 25.31 1.7 35.1 73 -2.7 27.2
16:20 1028 30.36 857 25.31 1.6 34.9 73 -2.7 27.1
16:25 1028 30.36 857 25.31 1.4 34.5 73 -2.9 26.8
16:30 1028 30.36 857 25.31 1.3 34.4 72 -3.1 26.3
16:35 1028 30.36 857 25.31 1.3 34.3 72 -3.2 26.3
16:40 1028 30.36 857 25.31 1.4 34.4 71 -3.3 26
16:45 1028 30.36 857 25.31 1.4 34.5 71 -3.4 25.9
16:50 1028 30.36 857 25.31 1.3 34.4 70 -3.5 25.7
16:55 1028 30.36 857 25.31 1.3 34.4 70 -3.5 25.6
17:00 1028 30.36 857 25.31 1.4 34.6 70 -3.5 25.8
17:05 1028 30.36 857 25.31 1.5 34.7 70 -3.3 26
17:10 1028 30.36 857 25.31 1.5 34.7 70 -3.5 25.8
17:15 1028 30.36 857 25.31 1.6 34.8 70 -3.3 26
17:20 1028 30.36 857 25.31 1.6 34.9 69 -3.4 25.8
17:25 1028 30.36 857 25.31 1.7 35.1 69 -3.4 26
17:30 1028 30.36 857 25.31 1.7 35 72 -2.8 27
17:35 1028 30.36 858 25.34 1.4 34.5 78 -2.1 28.2
17:40 1028 30.36 858 25.34 1.2 34.2 75 -2.7 27.1
17:45 1028 30.36 858 25.34 1.3 34.4 76 -2.4 27.7
17:50 1029 30.39 858 25.34 1.4 34.5 76 -2.5 27.5
17:55 1029 30.39 858 25.34 1.4 34.4 76 -2.4 27.6
18:00 1029 30.39 858 25.34 1.4 34.4 76 -2.4 27.7
18:05 1029 30.39 858 25.34 1.3 34.4 75 -2.7 27.2
18:10 1029 30.39 858 25.34 1.3 34.4 74 -2.9 26.9
18:15 1029 30.39 858 25.34 1.4 34.5 72 -3.2 26.3
18:20 1029 30.39 858 25.34 1.4 34.5 72 -3.1 26.5
18:25 1029 30.39 858 25.34 1.3 34.4 73 -3 26.5
18:30 1029 30.39 858 25.34 1.2 34.1 72 -3.3 26.1
18:35 1029 30.39 858 25.34 1.3 34.4 72 -3.2 26.2
18:40 1029 30.39 858 25.34 1.4 34.6 71 -3.2 26.2
18:45 1029 30.39 858 25.34 1.5 34.6 71 -3.3 26.1
18:50 1029 30.39 858 25.34 1.5 34.6 70 -3.5 25.8
18:55 1029 30.39 858 25.34 1.4 34.5 71 -3.4 26
19:00 1029 30.39 858 25.34 1.4 34.5 70 -3.6 25.6
19:05 1029 30.39 858 25.34 1.4 34.5 69 -3.6 25.4
19:10 1029 30.39 858 25.34 1.4 34.5 70 -3.5 25.6
19:15 1029 30.39 858 25.34 1.3 34.4 70 -3.5 25.7
19:20 1029 30.39 858 25.34 1.2 34.2 70 -3.6 25.4
19:25 1029 30.39 858 25.34 1.2 34.2 70 -3.6 25.5
19:30 1029 30.39 858 25.34 1.2 34.2 71 -3.6 25.6
19:35 1029 30.39 858 25.34 1.2 34.1 70 -3.6 25.5
19:40 1029 30.39 858 25.34 1.1 34.1 72 -3.4 25.8
19:45 1029 30.39 858 25.34 1.1 34 71 -3.6 25.6
19:50 1029 30.39 858 25.34 1.1 34 71 -3.5 25.6
19:55 1029 30.39 858 25.34 1.1 34.1 71 -3.5 25.6
20:00 1029 30.39 858 25.34 1.2 34.1 70 -3.6 25.5
20:05 1029 30.39 858 25.34 1.2 34.1 69 -3.9 24.9
20:10 1029 30.39 858 25.34 1.2 34.2 68 -4 24.8
20:15 1029 30.39 858 25.34 1.2 34.2 68 -4.1 24.6
20:20 1029 30.39 858 25.34 1.3 34.3 65 -4.6 23.8
20:25 1029 30.39 858 25.34 1.3 34.4 65 -4.6 23.7
20:30 1029 30.39 858 25.34 1.3 34.4 65 -4.6 23.8
20:35 1029 30.39 858 25.34 1.3 34.4 65 -4.6 23.8
20:40 1029 30.39 858 25.34 1.3 34.3 65 -4.6 23.7
20:45 1029 30.39 858 25.34 1.2 34.2 66 -4.4 24
20:50 1029 30.39 858 25.34 1 33.9 70 -3.8 25.1
20:55 1029 30.39 858 25.34 0.6 33.1 69 -4.4 24.2
21:00 1029 30.39 858 25.34 0.6 33.1 68 -4.6 23.7
21:05 1029 30.39 858 25.34 0.8 33.4 68 -4.5 24
21:10 1029 30.39 859 25.37 0.7 33.3 68 -4.6 23.7
21:15 1029 30.39 859 25.37 0.7 33.3 67 -4.7 23.6
21:20 1029 30.39 859 25.37 0.8 33.4 65 -5 23
21:25 1029 30.39 859 25.37 0.9 33.6 66 -4.7 23.5
21:30 1029 30.39 858 25.34 0.8 33.5 67 -4.7 23.6
21:35 1029 30.39 858 25.34 0.8 33.4 67 -4.6 23.6
21:40 1029 30.39 858 25.34 0.8 33.4 67 -4.6 23.7
21:45 1029 30.39 858 25.34 0.7 33.3 66 -4.9 23.1
21:50 1029 30.39 858 25.34 0.7 33.3 65 -5.2 22.7
21:55 1029 30.39 858 25.34 0.7 33.3 66 -4.9 23.2
22:00 1029 30.39 858 25.34 0.7 33.3 67 -4.8 23.4
22:05 1029 30.39 858 25.34 0.7 33.2 65 -5.2 22.6
22:10 1029 30.39 858 25.34 0.6 33.1 65 -5.2 22.6
22:15 1029 30.39 858 25.34 0.6 33.1 65 -5.2 22.7
22:20 1029 30.39 858 25.34 0.6 33 68 -4.6 23.7
22:25 1029 30.39 858 25.34 0.2 32.3 69 -4.8 23.3
22:30 1029 30.39 858 25.34 -0.2 31.7 70 -5.1 22.8
22:35 1029 30.39 858 25.34 -0.4 31.2 71 -5 22.9
22:40 1029 30.39 858 25.34 -0.3 31.5 65 -6.1 21.1
22:45 1029 30.39 858 25.34 0.3 32.5 64 -5.7 21.7
22:50 1029 30.39 858 25.34 0.4 32.8 66 -5.1 22.8
22:55 1029 30.39 858 25.34 -0 31.9 70 -4.8 23.3
23:00 1029 30.39 858 25.34 -0.1 31.8 67 -5.4 22.2
23:05 1029 30.39 858 25.34 0.2 32.4 66 -5.5 22.1
23:10 1029 30.39 858 25.34 0.4 32.7 64 -5.6 21.9
23:15 1029 30.39 858 25.34 0.3 32.6 63 -6 21.2
23:20 1029 30.39 858 25.34 0.5 32.8 61 -6.1 20.9
23:25 1029 30.39 858 25.34 0.5 32.8 63 -5.9 21.4
23:30 1029 30.39 858 25.34 0.4 32.7 63 -5.8 21.6
23:35 1029 30.39 858 25.34 0.4 32.6 63 -5.8 21.5
23:40 1029 30.39 858 25.34 0.3 32.6 62 -6 21.1
23:45 1029 30.39 858 25.34 0.3 32.6 63 -5.9 21.5
23:50 1029 30.39 858 25.34 0.2 32.4 64 -5.8 21.5
23:55 1029 30.39 858 25.34 0.1 32.3 64 -5.8 21.5
24:00 1029 30.39 858 25.34 0.1 32.2 64 -5.9 21.4